Погода в Житомире

Погода в Житомире : погода сейчас, прогноз погоды и архив. Всё, что Вы хотите узнать о погоде в Житомире!

Хотите узнать прогноз погоды в Житомире? Тогда Вам сюда: Погода в Житомире

Поиск расширенной информации на нашем сайте:

Полезная информация:

Другие новости

Новости СМИ2

Главная страница сайта

Новости сайта

03.07.2017

Напоминаем, что на нашем специализированном сайте Метеоцентр.Азия вы можете получить высокодетализированные автоматические прогнозы погоды по пунктам России, СНГ и мира в авиационном формате (включающие направление и скорость ветра, видимость, явления погоды, количество и форму облачности, нижнюю и верхнюю границу облачности).

Рекомендуем:

Погода в Житомире - сегодня

Время (UTC), дата Ветер
(°,м/с) 
Видим.   Явления Облачность Т
(°С)
Тd
(°С)
f(%) Тe
(°С)
Pmin
(гПа)
dP
(гПа)
Po
(мм)
O2
(г/м3)
Тmin Tmax R s Состояние
почвы
09 15.09.19 280 (З) 10 км    10/6 1110 м верхняя 
[Cu hum|Ci fib]
+17.1 +3.3 40 +19  1024.7  -1.7  749  284           
12 15.09.19 260 (З) 10 км    9/1 1000 м верхняя 
[Cu hum|Ci fib]
+20.2 +2.7 31 +20  1021.8  -2.5  747  280           
15 15.09.19 260 (З) 10 км    10/0 верхняя 
[Ci]
+19.8 +2.4 31 +21  1019.3  -2.5  745  280           
18 15.09.19 260 (З) 10 км    8/0 верхняя 
[Ci fib]
+16.1 +4.2 45 +17  1017.6  -2  744  282    +20.5       
21 15.09.19 260 (З) 10 км    3/0 верхняя 
[Ci fib]
+13.6 +8.4 71 +15  1016.3  -1.4  743  284           
00 16.09.19 260 (З) 10 км    8/0 верхняя 
[Cc]
+12.8 +6.6 66 +13  1015.2  -1.2  742  284           
03 16.09.19 260 (З) 10 км    8/0 верхняя 
[Ci fib]
+12.9 +5.5 61 +13  1013.5  -1.6  741  284           
06 16.09.19 270 (З) 10 км    6/3 1000 м средняя, верхняя 
[Sc|Ac trans|Cc]
+14.4 +7.1 61 +15  1013.3  -0.1  741  282  +11.3         
09 16.09.19 260 (З) 10 км    8/4 1000 м средняя 
[Sc|Ac trans]
+20 +6.1 40 +20  1011.9  -0.9  740  277           
12 16.09.19 290 (З) 10 км    8/0 средняя, верхняя 
[Ac trans|Cc]
+20.7 +6.9 41 +21  1010.6  -1.2  739  276           
15 16.09.19 270 (З) 10 км    9/3 1000 м средняя, верхняя 
[Sc|Ac trans|Ci fib]
+20.2 +8 45 +20  1009.8  -0.8  738  276           
18 16.09.19 270 (З) 10 км    10/6 930 м средняя 
[Sc|Ac und]
+17.7 +5.7 45 +19  1010.5  0.5  739  279    +22.2       
21 16.09.19 280 (З) 10 км    10/5 930 м средняя 
[Sc|Ac und]
+16.1 +5.6 50 +17  1010.5  -0.2  739  280           
00 17.09.19 300 (СЗ) 10 км    5/3 600 м средняя 
[Sc|Ac trans]
+13.6 +6.4 62 +15  1010.6  -0.1  739  282           
03 17.09.19 290 (З) 10 км    10/6 840 м средняя 
[Sc|Ac und]
+12.1 +5.7 65 +13  1010.6  -0.1  738  284           
06 17.09.19 270 (З) 10 км    3/0 верхняя 
[Ci fib]
+12 +5.1 63 +12  1011.3  0.6  739  284  +9.9         
09 17.09.19 300 (СЗ) 10 км    8/8 1080 м 
[Cu hum]
+15.8 +3.8 45 +16  1010.2  -0.7  738  281           
12 17.09.19 290 (З) 10 км    1/1 1000 м 
[Cu hum]
+18 +1.7 33 +19  1008.5  -1.5  737  278           
15 17.09.19 280 (З) 10 км    4/1 1000 м верхняя 
[Cu hum|Cc]
+17.4 +0.7 32 +18  1007  -1.5  736  279           
18 17.09.19 260 (З) 10 км    9/0 средняя 
[Ac trans]
+14 +2.9 47 +15  1007  -0.3  736  282    +19.1       
21 17.09.19 250 (З) 10 км    8/3 600 м средняя 
[Sc|Ac trans]
+13.6 +2.9 48 +14  1005.5  -1.5  735  282           
00 18.09.19 260 (З) 10 км    10/0 средняя 
[Ac und]
+11 +4.4 64 +11  1004  -1.7  734  283           
03 18.09.19 270 (З) 10 км  в посл. час ливневой дождь  9/6 700 м кучево-дожд., средняя 
[Cb calv|Ac trans]
+9 +5.5 79 +8  1004.4  0.2  734  285           
06 18.09.19 270 (З) 10 км  {ливн. осадки}  10/10 660 м кучево-дожд. 
[Cb calv]
+8.9 +2 62 +8  1005.8  1.4  735  286  +7.6    0.4     
09 18.09.19 280 (З) 10 км  в посл. час ливневой дождь  5/5 660 м кучево-дожд. 
[Cb calv]
+9 +5 76 +8  1007.5  1.7  736  286           
Время (UTC), дата Ветер
(°,м/с) 
Видим.   Явления Облачность Т
(°С)
Тd
(°С)
f(%) Тe
(°С)
Pmin
(гПа)
dP
(гПа)
Po
(мм)
O2
(г/м3)
Тmin Tmax R s Состояние
почвы

Для получения пояснительной информации подведите курсор к названию столбца.

ПОГОДА в Житомире - архив

Всё, что Вы хотите узнать о погоде в Житомире - удобно и подробно!

Выберите нужную дату (начиная с 1 января 2018* года) и нажмите кнопку "Найти".
Будут отображены архивные сводки погоды по пункту Житомир, начиная с указанной даты.


Отображать данные в формате CSV (для использования в таблицах Excel)


Внимание! Наш архив погоды предназначен исключительно для личного некоммерческого использования в познавательных целях. Если Вам необходимы официальные справки о состоянии погоды (для производственных, юридических, коммерческих и т.п. целей), обращайтесь в органы Росгидромета.

*Примечание: данная дата относится к архиву по метеостанциям СССР (Россия, СНГ, Балтия).
Архив по метеостанциям Зарубежной Европы и Азии (кроме Китая) хранится 10 дней, по другим регионам земного шара (Китай, Африка, Америка, Австралия, Океания) - 1 день.

Житомир - район местоположения метеостанции


Название, широта, долгота, высота метеостанции:
Житомир 50.2°ш. 28.7°д. 224 м над ур. моря [Украина]

Дополнительная информация

В oтличие oт бoльшинства пoгoдных сайтoв мы публикуем пoдрoбную метеoинфoрмацию в детальнoм прoфессиoнальнoм фoрмате.

Характеристики температуры и влажнoсти вoздуха измеряются на высoте 2 м в тени вдали oт зданий и деревьев.
Скoрoсть ветра измеряется на высoте 10 м (на урoвне рoста челoвека скoрoсть ветра ниже в 1.5-2 раза). Если метеoстанция нахoдится в гoрoде или в лесу, тo скoрoсть ветра занижена на 2-4 м/с пo сравнению с oткрытым местoм. Скoрoсть ветра над акватoриями крупных рек и oзёр, а также на вершинах хoлмoв на 2-5 м/с выше, чем в oбычных услoвиях.
Атмoсфернoе давление в разных тoчках местнoсти мoжет значительнo oтличаться oт давления на метеoстанции, в зависимoсти oт услoвий рельефа (при пoдъёме на 10 м давление пoнижается примернo на 1 мм рт.ст.).